STARLINK-34536

Last updated on Sat Aug 02 2025 00:02:05 GMT+0000 (Coordinated Universal Time)

1 64748U 25144AA 25213.05904895 .00078528 00000+0 14049-2 0 9997 2 64748 53.1593 127.1722 0000985 101.0791 259.0328 15.49327939 5916

Satellite not in orbit

STARLINK-34536